Tracking 19564 objects as of 20-Mar-2019
HD Live streaming from Space Station
objects crossing your sky now

FENGYUN 1C DEB

Track FENGYUN 1C DEB now!
10-day predictions


NORAD ID: 31665
Int'l Code: 1999-025CBX
Perigee: 831.5 km
Apogee: 1,128.2 km
Inclination: 98.5 °
Period: 104.5 minutes
Semi major axis: 7350 km
RCS: 0.0067 m2 (small)
Launch date: May 10, 1999
Source: People's Republic of China (PRC)
Launch site: Taiyaun Space Center, China (TSC)

Note: This is SATELLITE DEBRIS
aabbcc
Your satellite tracking list
Your tracking list is empty




NASA's NSSDC Master Catalog

Two Line Element Set (TLE):
1 31665U 99025CBX 19078.72039972  .00000483  00000-0  44933-3 0  9991
2 31665  98.4831 347.7426 0201799  27.1077   0.4133 13.77507766594447
Source of the keplerian elements: AFSPC